• In Hungary
  • List of Countries
  • For 7 days
  • Water Temperature
  • Satellite Maps
  • Weather Map
  • News
  • Weather Widgets
  • user-avatar
    Login

    Hourly Weather Prishnya

    Today, 16 August, Thursday

    Time Temperature Precipitation Wind Pressure Humidity
    00:00 +19°C° 0.1 mm 2 mps 740 mmHg 88%
    01:00 +19°C° 0.1 mm 2 mps 740 mmHg 90%
    02:00 +18°C° 0.1 mm 2 mps 741 mmHg 92%
    03:00 +18°C° 0 mm 2 mps 741 mmHg 93%
    04:00 +18°C° 0 mm 2 mps 741 mmHg 93%
    05:00 +18°C° 0 mm 2 mps 741 mmHg 93%
    06:00 +19°C° 0 mm 2 mps 741 mmHg 88%
    07:00 +20°C° 0 mm 2 mps 741 mmHg 83%
    08:00 +21°C° 0 mm 2 mps 742 mmHg 78%
    09:00 +24°C° 0 mm 2 mps 742 mmHg 72%
    10:00 +25°C° 0 mm 2 mps 742 mmHg 66%
    11:00 +26°C° 0 mm 2 mps 742 mmHg 61%
    12:00 +26°C° 0.2 mm 2 mps 742 mmHg 60%
    13:00 +26°C° 0.2 mm 2 mps 742 mmHg 59%
    14:00 +27°C° 0.2 mm 2 mps 742 mmHg 58%
    15:00 +26°C° 1.1 mm 2 mps 742 mmHg 64%
    16:00 +25°C° 1.1 mm 2 mps 742 mmHg 70%
    17:00 +24°C° 1.1 mm 2 mps 742 mmHg 76%
    18:00 +23°C° 0.2 mm 2 mps 742 mmHg 80%
    19:00 +20°C° 0.2 mm 2 mps 743 mmHg 85%
    20:00 +19°C° 0.2 mm 2 mps 743 mmHg 89%
    21:00 +18°C° 0 mm 2 mps 743 mmHg 91%
    22:00 +18°C° 0 mm 2 mps 743 mmHg 92%
    23:00 +17°C° 0 mm 3 mps 744 mmHg 93%

    Tomorrow, 17 August, Friday

    Time Temperature Precipitation Wind Pressure Humidity
    00:00 +17°C° 0 mm 3 mps 744 mmHg 94%
    01:00 +16°C° 0 mm 3 mps 744 mmHg 94%
    02:00 +16°C° 0 mm 3 mps 744 mmHg 95%
    03:00 +16°C° 0 mm 3 mps 744 mmHg 95%
    04:00 +14°C° 0 mm 3 mps 745 mmHg 95%
    05:00 +14°C° 0 mm 3 mps 745 mmHg 95%
    06:00 +16°C° 0 mm 3 mps 745 mmHg 89%
    07:00 +17°C° 0 mm 4 mps 745 mmHg 84%
    08:00 +19°C° 0 mm 4 mps 746 mmHg 79%
    09:00 +20°C° 0 mm 4 mps 746 mmHg 73%
    10:00 +21°C° 0 mm 4 mps 746 mmHg 67%
    11:00 +22°C° 0 mm 5 mps 746 mmHg 61%
    12:00 +22°C° 0 mm 4 mps 746 mmHg 59%
    13:00 +23°C° 0 mm 4 mps 746 mmHg 57%
    14:00 +23°C° 0 mm 4 mps 745 mmHg 56%
    15:00 +23°C° 0 mm 4 mps 745 mmHg 59%
    16:00 +24°C° 0 mm 3 mps 745 mmHg 61%
    17:00 +22°C° 0 mm 3 mps 745 mmHg 64%
    18:00 +21°C° 0 mm 3 mps 745 mmHg 67%
    19:00 +19°C° 0 mm 2 mps 746 mmHg 71%
    20:00 +17°C° 0 mm 2 mps 746 mmHg 74%
    21:00 +17°C° 0 mm 2 mps 746 mmHg 74%
    22:00 +16°C° 0 mm 2 mps 746 mmHg 75%
    23:00 +16°C° 0 mm 2 mps 746 mmHg 75%

    Day after tomorrow, 18 August, Saturday

    Time Temperature Precipitation Wind Pressure Humidity
    00:00 +15°C° 0 mm 2 mps 746 mmHg 76%
    01:00 +15°C° 0 mm 2 mps 746 mmHg 78%
    02:00 +14°C° 0 mm 2 mps 746 mmHg 79%
    03:00 +14°C° 0 mm 2 mps 746 mmHg 81%
    04:00 +14°C° 0 mm 2 mps 746 mmHg 83%
    05:00 +14°C° 0 mm 2 mps 747 mmHg 85%
    06:00 +16°C° 0 mm 2 mps 747 mmHg 79%
    07:00 +18°C° 0 mm 2 mps 747 mmHg 74%
    08:00 +20°C° 0 mm 3 mps 747 mmHg 68%
    09:00 +21°C° 0 mm 3 mps 747 mmHg 63%
    10:00 +22°C° 0 mm 3 mps 747 mmHg 58%
    11:00 +24°C° 0 mm 3 mps 747 mmHg 53%
    12:00 +24°C° 0 mm 3 mps 747 mmHg 52%
    13:00 +24°C° 0 mm 3 mps 747 mmHg 51%
    14:00 +25°C° 0 mm 3 mps 747 mmHg 50%
    15:00 +24°C° 0 mm 3 mps 746 mmHg 53%
    16:00 +24°C° 0 mm 2 mps 746 mmHg 57%
    17:00 +24°C° 0 mm 2 mps 746 mmHg 61%
    18:00 +21°C° 0 mm 2 mps 746 mmHg 63%
    19:00 +19°C° 0 mm 2 mps 747 mmHg 66%
    20:00 +17°C° 0 mm 2 mps 747 mmHg 69%
    21:00 +18°C° 0 mm 1 mps 747 mmHg 70%
    22:00 +16°C° 0 mm 1 mps 747 mmHg 71%
    23:00 +16°C° 0 mm 1 mps 747 mmHg 72%

    19 August, Sunday

    Time Temperature Precipitation Wind Pressure Humidity
    00:00 +16°C° 0 mm 1 mps 747 mmHg 73%
    01:00 +15°C° 0 mm 1 mps 747 mmHg 73%
    02:00 +15°C° 0 mm 2 mps 747 mmHg 74%
    03:00 +15°C° 0 mm 2 mps 747 mmHg 75%
    04:00 +14°C° 0 mm 2 mps 747 mmHg 77%
    05:00 +14°C° 0 mm 2 mps 747 mmHg 78%
    06:00 +16°C° 0 mm 2 mps 747 mmHg 73%
    07:00 +18°C° 0 mm 2 mps 747 mmHg 68%
    08:00 +20°C° 0 mm 2 mps 747 mmHg 63%
    09:00 +21°C° 0 mm 3 mps 747 mmHg 59%
    10:00 +22°C° 0 mm 3 mps 747 mmHg 55%
    11:00 +23°C° 0 mm 4 mps 747 mmHg 51%
    12:00 +25°C° 0 mm 4 mps 746 mmHg 50%
    13:00 +25°C° 0 mm 4 mps 746 mmHg 50%
    14:00 +25°C° 0 mm 4 mps 746 mmHg 49%
    15:00 +25°C° 0 mm 3 mps 745 mmHg 53%
    16:00 +24°C° 0 mm 3 mps 745 mmHg 57%
    17:00 +24°C° 0 mm 2 mps 745 mmHg 61%
    18:00 +21°C° 0 mm 2 mps 745 mmHg 65%
    19:00 +20°C° 0 mm 2 mps 745 mmHg 68%
    20:00 +18°C° 0 mm 2 mps 745 mmHg 71%
    21:00 +17°C° 0 mm 3 mps 745 mmHg 72%
    22:00 +17°C° 0 mm 3 mps 744 mmHg 72%
    23:00 +16°C° 0 mm 3 mps 744 mmHg 72%

    20 August, Monday

    Time Temperature Precipitation Wind Pressure Humidity
    00:00 +16°C° 0 mm 3 mps 744 mmHg 72%
    01:00 +16°C° 0 mm 3 mps 744 mmHg 72%
    02:00 +14°C° 0 mm 3 mps 744 mmHg 72%
    03:00 +14°C° 0 mm 3 mps 744 mmHg 73%
    04:00 +14°C° 0 mm 3 mps 744 mmHg 74%
    05:00 +14°C° 0 mm 3 mps 744 mmHg 75%
    06:00 +16°C° 0.1 mm 3 mps 744 mmHg 72%
    07:00 +18°C° 0.1 mm 3 mps 744 mmHg 70%
    08:00 +20°C° 0.1 mm 3 mps 744 mmHg 68%
    09:00 +21°C° 0.2 mm 3 mps 744 mmHg 66%
    10:00 +24°C° 0.2 mm 3 mps 744 mmHg 64%
    11:00 +25°C° 0.2 mm 3 mps 744 mmHg 61%
    12:00 +25°C° 0.6 mm 3 mps 743 mmHg 61%
    13:00 +26°C° 0.6 mm 3 mps 743 mmHg 61%
    14:00 +26°C° 0.6 mm 3 mps 743 mmHg 61%
    15:00 +26°C° 0.7 mm 3 mps 743 mmHg 65%
    16:00 +25°C° 0.7 mm 2 mps 743 mmHg 68%
    17:00 +25°C° 0.7 mm 2 mps 743 mmHg 71%
    18:00 +23°C° 0.3 mm 2 mps 743 mmHg 76%
    19:00 +21°C° 0.3 mm 2 mps 743 mmHg 80%
    20:00 +20°C° 0.3 mm 1 mps 743 mmHg 85%
    21:00 +20°C° 0 mm 1 mps 743 mmHg 87%
    22:00 +19°C° 0 mm 1 mps 743 mmHg 88%
    23:00 +19°C° 0 mm 1 mps 743 mmHg 90%

    21 August, Tuesday

    Time Temperature Precipitation Wind Pressure Humidity
    00:00 +18°C° 0 mm 1 mps 743 mmHg 90%
    01:00 +18°C° 0 mm 1 mps 743 mmHg 91%
    02:00 +16°C° 0 mm 0 mps 743 mmHg 91%
    03:00 +18°C° 0 mm 1 mps 743 mmHg 92%
    04:00 +18°C° 0 mm 1 mps 743 mmHg 92%
    05:00 +18°C° 0 mm 1 mps 743 mmHg 92%
    06:00 +19°C° 0 mm 1 mps 743 mmHg 88%
    07:00 +21°C° 0 mm 1 mps 743 mmHg 83%
    08:00 +22°C° 0 mm 1 mps 743 mmHg 78%
    09:00 +23°C° 0.2 mm 2 mps 743 mmHg 73%
    10:00 +24°C° 0.2 mm 3 mps 743 mmHg 67%
    11:00 +26°C° 0.2 mm 3 mps 743 mmHg 62%
    12:00 +26°C° 0.1 mm 4 mps 743 mmHg 60%
    13:00 +26°C° 0.1 mm 4 mps 743 mmHg 59%
    14:00 +26°C° 0.1 mm 4 mps 742 mmHg 58%
    15:00 +26°C° 0 mm 4 mps 742 mmHg 61%
    16:00 +25°C° 0 mm 3 mps 742 mmHg 64%
    17:00 +25°C° 0 mm 2 mps 742 mmHg 67%
    18:00 +23°C° 0 mm 2 mps 742 mmHg 70%
    19:00 +20°C° 0 mm 2 mps 743 mmHg 74%
    20:00 +19°C° 0 mm 2 mps 743 mmHg 78%
    21:00 +18°C° 0 mm 2 mps 743 mmHg 80%
    22:00 +18°C° 0 mm 2 mps 743 mmHg 82%
    23:00 +18°C° 0 mm 2 mps 743 mmHg 83%
    Show more